Location: Carella
(45.8167°N, 9.2667°E)
Time: 08:09:27
(UTC+00:00)

USA 234 - Pass Details

Date: 30 March 2020
Orbit: 1102 x 1106 km, 123.0° (Epoch: 14 May)

Event Time Altitude Azimuth Distance (km) Brightness Sun altitude
Rises 18:23:31 0° 55° (NE) 3,926 5.8 -6.7°
Reaches altitude 10° 18:26:12 10° 62° (ENE) 2,966 5.1 -7.2°
Maximum altitude 18:32:17 40° 131° (SE) 1,578 3.7 -8.2°
Drops below altitude 10° 18:38:20 10° 199° (SSW) 2,955 5.6 -9.2°
Sets 18:40:59 0° 206° (SSW) 3,910 6.3 -9.7°
